Regional Weather Roundup
Issued by NWS

Home | Current Version | Previous Version | Graphics & Text | Print | Product List | Glossary On
Versions: 1 2 3 4 5 6 7 8 9 10 11 12 13 14 15 16 17 18 19 20 21 22 23 24 25 26 27 28 29 30 31 32 33 34 35 36 37 38 39 40 41 42 43 44 45 46 47 48 49 50
000
ASUS43 KOAX 021210
RWRNE

WEATHER ROUNDUP FOR NEBRASKA
NATIONAL WEATHER SERVICE OMAHA NE
600 AM CST FRI DEC 02 2016

NOTES: SATELLITE DATA IS BEING USED TO AUGMENT CLOUD COVER ABOVE
       12000 FEET.
       "FAIR" INDICATES FEW OR NO CLOUDS BELOW 12,000 FEET WITH NO
       SIGNIFICANT WEATHER AND/OR OBSTRUCTIONS TO VISIBILITY.

  * THESE STATIONS DO NOT REPORT WEATHER SUCH AS RAIN...SNOW OR FOG.

NEZ001>004-019>022-054>056-021300-
NEBRASKA PANHANDLE

CITY           SKY/WX    TMP DP  RH WIND       PRES   REMARKS
SCOTTSBLUFF    PTCLDY    16  11  80 N6        30.15R WCI   7
6HR MIN TEMP:  15; 6HR MAX TEMP:  23;

ALLIANCE       PTCLDY    12   8  84 W7        30.12R WCI   1
6HR MIN TEMP:  10; 6HR MAX TEMP:  21;

CHADRON        CLOUDY    24  20  84 SW7       30.14R WCI  16
6HR MIN TEMP:  24; 6HR MAX TEMP:  27;

KIMBALL        CLEAR     18  16  92 NW5       30.10F WCI  11
SIDNEY         CLEAR     15  12  88 NW10      30.12R WCI   2
6HR MIN TEMP:  14; 6HR MAX TEMP:  23;

$$

NEZ057>060-069>072-079>082-021300-
SOUTHWEST NEBRASKA

CITY           SKY/WX    TMP DP  RH WIND       PRES   REMARKS
NORTH PLATTE   CLEAR     14  11  87 NW3       30.15R
6HR MIN TEMP:  13; 6HR MAX TEMP:  22;

IMPERIAL       CLEAR     18  12  77 W6        30.14R WCI  10
6HR MIN TEMP:  16; 6HR MAX TEMP:  23;

LEXINGTON      CLEAR     17  14  88 CALM      30.16R
MCCOOK         CLEAR     18  12  77 W8        30.16R WCI   8
6HR MIN TEMP:  16; 6HR MAX TEMP:  20;

OGALLALA       CLEAR     15  12  89 SW8       30.14S WCI   3
$$

NEZ005>010-023>029-035>040-094-021300-
NORTH CENTRAL NEBRASKA

CITY           SKY/WX    TMP DP  RH WIND       PRES   REMARKS
VALENTINE      CLOUDY    22  19  89 SW3       30.16R
6HR MIN TEMP:  16; 6HR MAX TEMP:  23;

AINSWORTH      CLOUDY    22  21  96 W3        30.16R
BROKEN BOW     CLOUDY    27  25  92 CALM      30.14R
6HR MIN TEMP:  17; 6HR MAX TEMP:  27;

O`NEILL        CLOUDY    27  26  94 NW6       30.17S WCI  21
ORD            CLOUDY    24  20  84 CALM      30.17R
6HR MIN TEMP:  17; 6HR MAX TEMP:  24;

THEDFORD       CLOUDY    27  24  91 CALM      30.15R
$$

NEZ041-046>049-061>064-073>077-083>087-021300-
SOUTH CENTRAL NEBRASKA

CITY           SKY/WX    TMP DP  RH WIND       PRES   REMARKS
GRAND ISLAND   CLOUDY    20  18  92 NW5       30.17R WCI  13
6HR MIN TEMP:  18; 6HR MAX TEMP:  25;

AURORA         CLEAR     20  20  96 N6        30.18R WCI  13
HASTINGS       CLEAR     19  16  88 N5        30.18R WCI  12
6HR MIN TEMP:  18; 6HR MAX TEMP:  23;

HEBRON         CLEAR     17  15  92 CALM      30.18R
HOLDREGE       CLEAR     19  16  89 N6        30.16R WCI  10
KEARNEY *      CLEAR     19  16  86 N3        30.17R
YORK           CLEAR     21  19  93 CALM      30.18R
$$

NEZ011>018-030>034-042>045-021300-
NORTHEAST NEBRASKA

CITY           SKY/WX    TMP DP  RH WIND       PRES   REMARKS
NORFOLK        CLEAR     23  20  88 W7        30.17S WCI  15
6HR MIN TEMP:  21; 6HR MAX TEMP:  30;

ALBION         PTCLDY    20  18  92 CALM      30.18S
BLAIR          PTCLDY    31  28  90 CALM      30.18R
FREMONT        CLEAR     25  25  99 W5        30.19S WCI  19
TEKAMAH        CLOUDY    32  29  88 NW8       30.19R WCI  25
6HR MIN TEMP:  31; 6HR MAX TEMP:  33;

WAYNE          CLOUDY    30  28  93 W5        30.18R WCI  25
$$

NEZ050>053-065>068-078-088>093-021300-
SOUTHEAST NEBRASKA

CITY           SKY/WX    TMP DP  RH WIND       PRES   REMARKS
LINCOLN        CLEAR     23  20  88 N5        30.21R WCI  17
6HR MIN TEMP:  21; 6HR MAX TEMP:  30;

OMAHA EPPLEY   CLOUDY    30  25  81 NW5       30.20R WCI  25
6HR MIN TEMP:  30; 6HR MAX TEMP:  34;

BEATRICE       CLEAR     18  16  90 CALM      30.19R
FALLS CITY     CLEAR     21  18  88 NW5       30.20R WCI  15
6HR MIN TEMP:  20; 6HR MAX TEMP:  28;

NEBRASKA CITY  CLEAR     28  23  82 NW6       30.19R WCI  21
PLATTSMOUTH    CLEAR     28  24  85 W5        30.19R WCI  23
$$

NEZ044-045-051>053-067-021300-
OMAHA AREA

CITY           SKY/WX    TMP DP  RH WIND       PRES   REMARKS
OMAHA EPPLEY   CLOUDY    30  25  81 NW5       30.20R WCI  25
6HR MIN TEMP:  30; 6HR MAX TEMP:  34;

BLAIR          PTCLDY    31  28  90 CALM      30.18R
FREMONT        CLEAR     25  25  99 W5        30.19S WCI  19
MILLARD        CLEAR     29  27  91 CALM      30.20R
OFFUTT AFB     PTCLDY    27  26  99 W3        30.19R
PLATTSMOUTH    CLEAR     28  24  85 W5        30.19R WCI  23
WAHOO          FAIR      27  24  90 NW6       30.19S WCI  20
$$




USA.gov is the U.S. government's official web portal to all federal, state and local government web resources and services.